Regional Weather Roundup
Issued by NWS

Home | Current Version | Previous Version | Graphics & Text | Print | Product List | Glossary On
Versions: 1 2 3 4 5 6 7 8 9 10 11 12 13 14 15 16 17 18 19 20 21 22 23 24 25 26 27 28 29 30 31 32 33 34 35 36 37 38 39 40 41 42 43 44 45 46 47 48 49 50
000
ASUS43 KOAX 022110
RWRNE

WEATHER ROUNDUP FOR NEBRASKA
NATIONAL WEATHER SERVICE OMAHA NE
400 PM CDT SUN AUG 02 2015

NOTES: SATELLITE DATA IS BEING USED TO AUGMENT CLOUD COVER ABOVE
       12000 FEET.
       "FAIR" INDICATES FEW OR NO CLOUDS BELOW 12,000 FEET WITH NO
       SIGNIFICANT WEATHER AND/OR OBSTRUCTIONS TO VISIBILITY.

  * THESE STATIONS DO NOT REPORT WEATHER SUCH AS RAIN...SNOW OR FOG.

NEZ001>004-019>022-054>056-022200-
NEBRASKA PANHANDLE

CITY           SKY/WX    TMP DP  RH WIND       PRES   REMARKS
SCOTTSBLUFF    MOSUNNY   85  51  31 NE12G25   30.01R
ALLIANCE       PTSUNNY   87  59  38 CALM      29.99R
CHADRON        SUNNY     91  58  32 NE10      29.96F HX  90
KIMBALL        PTSUNNY   88  46  23 S17       30.04S
SIDNEY         PTSUNNY   90  50  25 E9        30.02S
$$

NEZ057>060-069>072-079>082-022200-
SOUTHWEST NEBRASKA

CITY           SKY/WX    TMP DP  RH WIND       PRES   REMARKS
NORTH PLATTE   MOSUNNY   87  54  32 E8        29.90F
IMPERIAL       MOSUNNY   97  51  21 VRB5      29.93F HX  94
LEXINGTON      MOSUNNY   93  63  37 SE12      29.88F HX  94
MCCOOK         SUNNY     99  47  17 VRB5      29.88F HX  95
OGALLALA       MOSUNNY   93  58  30 SE6       29.94F HX  91
$$

NEZ005>010-023>029-035>040-094-022200-
NORTH CENTRAL NEBRASKA

CITY           SKY/WX    TMP DP  RH WIND       PRES   REMARKS
AINSWORTH      SUNNY     87  59  38 NE10      29.94S
BROKEN BOW     CLOUDY    89  70  53 N5        29.89S HX  94
O`NEILL        SUNNY     89  62  40 NE8       29.89F
ORD            MOSUNNY   96  67  38 CALM      29.84F HX 100
THEDFORD       MOSUNNY   94  59  31 S10G16    29.92S HX  93
$$

NEZ041-046>049-061>064-073>077-083>087-022200-
SOUTH CENTRAL NEBRASKA

CITY           SKY/WX    TMP DP  RH WIND       PRES   REMARKS
GRAND ISLAND   SUNNY     95  69  42 SW8       29.86F HX 100
AURORA         SUNNY     91  73  56 SW8       29.86F HX  99
HASTINGS       SUNNY     94  66  39 SW6       29.87F HX  97
HEBRON         SUNNY     93  64  37 SW10G20   29.84F HX  95
HOLDREGE       SUNNY     94  56  27 SE8       29.88F HX  92
KEARNEY *      MOSUNNY   93  70  46 S10       29.87F HX  99
YORK           SUNNY     90  75  62 SW8       29.86F HX 100
$$

NEZ011>018-030>034-042>045-022200-
NORTHEAST NEBRASKA

CITY           SKY/WX    TMP DP  RH WIND       PRES   REMARKS
NORFOLK        SUNNY     91  66  43 N7        29.84F HX  93
ALBION         SUNNY     90  70  52 NE12      29.85F HX  95
BLAIR          SUNNY     91  74  59 SW9G17    29.81S HX 100
COLUMBUS *     SUNNY     93  73  52 S6        29.81F HX 102
FREMONT        SUNNY     93  72  50 W12       29.81F HX 101
TEKAMAH        SUNNY     91  77  63 NW10      29.80S HX 104
WAYNE          SUNNY     89  66  47 N7        29.85S HX  91
$$

NEZ050>053-065>068-078-088>093-022200-
SOUTHEAST NEBRASKA

CITY           SKY/WX    TMP DP  RH WIND       PRES   REMARKS
LINCOLN        SUNNY     95  71  45 W8        29.83F HX 102
OMAHA EPPLEY   MOSUNNY   96  73  47 SW14G21   29.77F HX 105
BEATRICE       SUNNY     93  69  45 SW9       29.85S HX  97
FALLS CITY     SUNNY     91  73  55 W12       29.84F HX  99
NEBRASKA CITY  SUNNY     90  69  51 SW10      29.84S HX  94
PLATTSMOUTH    SUNNY    N/A N/A N/A SW12      29.82F
$$

NEZ044-045-051>053-067-022200-
OMAHA AREA

CITY           SKY/WX    TMP DP  RH WIND       PRES   REMARKS
OMAHA EPPLEY   MOSUNNY   96  73  47 SW14G21   29.77F HX 105
BLAIR          SUNNY     91  74  59 SW9G17    29.81S HX 100
FREMONT        SUNNY     93  72  50 W12       29.81F HX 101
MILLARD        SUNNY     94  75  55 SW8       29.79F HX 105
OFFUTT AFB     SUNNY     94  74  52 SW13      29.79F HX 104
PLATTSMOUTH    SUNNY    N/A N/A N/A SW12      29.82F
WAHOO          FAIR      93  74  54 W8        29.81F HX 102
$$



USA.gov is the U.S. government's official web portal to all federal, state and local government web resources and services.